| time (UTC) | temp F | wind direction | speed MPH | gust MPH | rain 1hr in | rain 24hr in | rain mn in | humidity % | barometer mb |
| 20260509064006 | 70 | 35 | 7.0 | 13.0 | 0.00 | 0.00 | 0.00 | 25 | 1010.3 |
| 20260509062806 | 71 | 3 | 13.0 | 20.0 | 0.00 | 0.00 | 0.00 | 26 | 1010.4 |
| 20260509060404 | 72 | 43 | 6.0 | 10.0 | 0.00 | 0.00 | 0.00 | 25 | 1010.2 |
| 20260509055205 | 70 | 314 | 5.0 | 10.0 | 0.00 | 0.00 | 0.00 | 26 | 1010.3 |
| 20260509054005 | 71 | 349 | 7.0 | 18.0 | 0.00 | 0.00 | 0.00 | 26 | 1010.4 |
| 20260509052804 | 70 | 329 | 12.0 | 17.0 | 0.00 | 0.00 | 0.00 | 27 | 1010.6 |
| 20260509051604 | 71 | 60 | 10.0 | 17.0 | 0.00 | 0.00 | 0.00 | 27 | 1010.6 |
| 20260509050407 | 70 | 358 | 3.0 | 9.0 | 0.00 | 0.00 | 0.00 | 29 | 1010.3 |
| 20260509045204 | 69 | 333 | 6.0 | 10.0 | 0.00 | 0.00 | 0.00 | 30 | 1010.5 |
| 20260509042805 | 69 | 308 | 12.0 | 21.0 | 0.00 | 0.00 | 0.00 | 29 | 1010.9 |
| 20260509041604 | 69 | 354 | 9.0 | 17.0 | 0.00 | 0.00 | 0.00 | 30 | 1010.8 |
| 20260509040406 | 69 | 333 | 13.0 | 25.0 | 0.00 | 0.00 | 0.00 | 30 | 1011.0 |
| 20260509035205 | 68 | 334 | 10.0 | 17.0 | 0.00 | 0.00 | 0.00 | 31 | 1011.1 |
| 20260509034005 | 68 | 330 | 17.0 | 26.0 | 0.00 | 0.00 | 0.00 | 31 | 1011.4 |
| 20260509032804 | 67 | 318 | 7.0 | 21.0 | 0.00 | 0.00 | 0.00 | 31 | 1011.4 |
| 20260509031604 | 67 | 270 | 9.0 | 17.0 | 0.00 | 0.00 | 0.00 | 34 | 1011.2 |
| 20260509030405 | 67 | 308 | 8.0 | 14.0 | 0.00 | 0.00 | 0.00 | 34 | 1011.0 |
| 20260509025204 | 68 | 290 | 9.0 | 14.0 | 0.00 | 0.00 | 0.00 | 34 | 1011.2 |
| 20260509022804 | 66 | 304 | 6.0 | 18.0 | 0.00 | 0.00 | 0.00 | 36 | 1011.5 |
| 20260509021605 | 65 | 338 | 6.0 | 20.0 | 0.00 | 0.00 | 0.00 | 37 | 1011.5 |
| 20260509020404 | 64 | 281 | 16.0 | 24.0 | 0.00 | 0.00 | 0.00 | 38 | 1011.7 |
| 20260509015204 | 65 | 292 | 20.0 | 24.0 | 0.00 | 0.00 | 0.00 | 38 | 1011.7 |
| 20260509014005 | 65 | 292 | 5.0 | 9.0 | 0.00 | 0.00 | 0.00 | 39 | 1011.6 |
| 20260509011605 | 65 | 352 | 3.0 | 9.0 | 0.00 | 0.00 | 0.00 | 40 | 1011.7 |
| 20260509010407 | 64 | 327 | 15.0 | 23.0 | 0.00 | 0.00 | 0.00 | 43 | 1011.6 |
| 20260509005205 | 64 | 314 | 22.0 | 32.0 | 0.00 | 0.00 | 0.00 | 42 | 1011.4 |
| 20260509004008 | 64 | 309 | 13.0 | 21.0 | 0.00 | 0.00 | 0.00 | 43 | 1011.3 |
| 20260509001607 | 63 | 283 | 20.0 | 31.0 | 0.00 | 0.00 | 0.00 | 41 | 1011.2 |
| 20260509000406 | 64 | 311 | 7.0 | 25.0 | 0.00 | 0.00 | 0.00 | 43 | 1010.7 |
| 20260508235206 | 64 | 317 | 18.0 | 36.0 | 0.00 | 0.00 | 0.00 | 42 | 1010.4 |
| 20260508234005 | 64 | 327 | 10.0 | 23.0 | 0.00 | 0.00 | 0.00 | 42 | 1010.2 |
| 20260508232806 | 65 | 235 | 6.0 | 9.0 | 0.00 | 0.00 | 0.00 | 41 | 1009.4 |
| 20260508231606 | 65 | 18 | 8.0 | 13.0 | 0.00 | 0.00 | 0.00 | 41 | 1009.1 |
| 20260508230406 | 65 | 346 | 8.0 | 17.0 | 0.00 | 0.00 | 0.00 | 40 | 1008.5 |
| 20260508225206 | 64 | 32 | 9.0 | 17.0 | 0.00 | 0.00 | 0.00 | 43 | 1008.3 |
| 20260508224007 | 63 | 71 | 6.0 | 8.0 | 0.00 | 0.00 | 0.00 | 49 | 1008.3 |
| 20260508222806 | 61 | 58 | 1.0 | 3.0 | 0.00 | 0.00 | 0.00 | 57 | 1008.3 |
| 20260508221606 | 60 | 109 | 0.0 | 0.0 | 0.00 | 0.00 | 0.00 | 63 | 1008.1 |
| 20260508220406 | 57 | 232 | 3.0 | 5.0 | 0.00 | 0.00 | 0.00 | 69 | 1007.7 |
| 20260508215207 | 57 | 227 | 2.0 | 3.0 | 0.00 | 0.00 | 0.00 | 67 | 1007.4 |
| 20260508214007 | 56 | 299 | 2.0 | 3.0 | 0.00 | 0.00 | 0.00 | 65 | 1007.1 |
| 20260508211607 | 57 | 42 | 1.0 | 2.0 | 0.00 | 0.00 | 0.00 | 70 | 1006.7 |
| 20260508210408 | 54 | 152 | 2.0 | 5.0 | 0.00 | 0.00 | 0.00 | 73 | 1006.3 |
| 20260508205206 | 52 | 56 | 0.0 | 2.0 | 0.00 | 0.00 | 0.00 | 79 | 1006.1 |
| 20260508204008 | 52 | 242 | 2.0 | 3.0 | 0.00 | 0.00 | 0.00 | 79 | 1005.8 |
| 20260508202805 | 54 | 269 | 3.0 | 7.0 | 0.00 | 0.00 | 0.00 | 69 | 1005.6 |
| 20260508201607 | 53 | 187 | 5.0 | 7.0 | 0.00 | 0.00 | 0.00 | 77 | 1005.8 |
| 20260508200406 | 52 | 353 | 6.0 | 8.0 | 0.00 | 0.00 | 0.00 | 82 | 1005.4 |
| 20260508195205 | 51 | 154 | 1.0 | 3.0 | 0.00 | 0.00 | 0.00 | 84 | 1005.3 |
| 20260508194007 | 51 | 262 | 1.0 | 2.0 | 0.00 | 0.00 | 0.00 | 87 | 1005.3 |
| 20260508192807 | 52 | 250 | 3.0 | 5.0 | 0.00 | 0.00 | 0.00 | 92 | 1005.3 |
| 20260508191607 | 52 | 232 | 1.0 | 1.0 | 0.00 | 0.00 | 0.00 | 92 | 1005.1 |
| 20260508190405 | 53 | 312 | 1.0 | 2.0 | 0.00 | 0.00 | 0.00 | 90 | 1005.1 |
| 20260508185205 | 52 | 54 | 0.0 | 1.0 | 0.00 | 0.00 | 0.00 | 93 | 1005.0 |
| 20260508184006 | 53 | 180 | 5.0 | 7.0 | 0.00 | 0.00 | 0.00 | 96 | 1004.9 |
| 20260508182806 | 53 | 298 | 2.0 | 5.0 | 0.00 | 0.00 | 0.00 | 96 | 1005.0 |
| 20260508181605 | 54 | 159 | 5.0 | 6.0 | 0.00 | 0.00 | 0.00 | 95 | 1004.9 |
| 20260508180406 | 53 | 116 | 5.0 | 6.0 | 0.00 | 0.00 | 0.00 | 98 | 1004.8 |
| 20260508175207 | 53 | 216 | 1.0 | 2.0 | 0.00 | 0.00 | 0.00 | 97 | 1004.4 |
| 20260508174006 | 54 | 226 | 0.0 | 0.0 | 0.00 | 0.00 | 0.00 | 96 | 1004.2 |
| 20260508172808 | 54 | 315 | 2.0 | 2.0 | 0.00 | 0.00 | 0.00 | 95 | 1004.0 |
| 20260508171605 | 55 | 233 | 3.0 | 5.0 | 0.00 | 0.00 | 0.00 | 94 | 1004.1 |
| 20260508170406 | 55 | 223 | 0.0 | 0.0 | 0.00 | 0.00 | 0.00 | 93 | 1003.7 |
| 20260508165209 | 55 | 236 | 2.0 | 3.0 | 0.00 | 0.00 | 0.00 | 93 | 1003.8 |
| 20260508164007 | 55 | 244 | 0.0 | 1.0 | 0.00 | 0.00 | 0.00 | 93 | 1003.7 |
| 20260508162805 | 56 | 251 | 1.0 | 1.0 | 0.00 | 0.00 | 0.00 | 92 | 1003.7 |
| 20260508161606 | 57 | 234 | 1.0 | 2.0 | 0.00 | 0.00 | 0.00 | 90 | 1003.7 |
| 20260508160407 | 57 | 250 | 1.0 | 2.0 | 0.00 | 0.00 | 0.00 | 88 | 1003.3 |
| 20260508155206 | 57 | 283 | 0.0 | 0.0 | 0.00 | 0.00 | 0.00 | 86 | 1003.2 |
| 20260508154005 | 58 | 345 | 3.0 | 5.0 | 0.00 | 0.00 | 0.00 | 84 | 1003.3 |
| 20260508152805 | 58 | 77 | 0.0 | 0.0 | 0.00 | 0.00 | 0.00 | 83 | 1003.4 |
| 20260508151604 | 59 | 125 | 0.0 | 0.0 | 0.00 | 0.00 | 0.00 | 79 | 1003.4 |
| 20260508150406 | 60 | 31 | 0.0 | 0.0 | 0.00 | 0.00 | 0.00 | 77 | 1003.4 |
| 20260508145206 | 60 | 27 | 2.0 | 5.0 | 0.00 | 0.00 | 0.00 | 76 | 1003.4 |
| 20260508144006 | 61 | 30 | 3.0 | 5.0 | 0.00 | 0.00 | 0.00 | 76 | 1003.2 |
| 20260508142808 | 61 | 42 | 3.0 | 5.0 | 0.00 | 0.00 | 0.00 | 76 | 1002.9 |
| 20260508141605 | 62 | 72 | 3.0 | 5.0 | 0.00 | 0.00 | 0.00 | 77 | 1002.8 |
| 20260508140405 | 63 | 33 | 8.0 | 10.0 | 0.00 | 0.00 | 0.00 | 76 | 1002.6 |
| 20260508135206 | 64 | 45 | 5.0 | 6.0 | 0.00 | 0.00 | 0.00 | 78 | 1002.4 |
| 20260508134005 | 65 | 81 | 5.0 | 12.0 | 0.00 | 0.00 | 0.00 | 80 | 1002.1 |
| 20260508132805 | 65 | 29 | 2.0 | 3.0 | 0.00 | 0.00 | 0.00 | 83 | 1002.0 |
| 20260508131605 | 66 | 52 | 1.0 | 2.0 | 0.00 | 0.00 | 0.00 | 84 | 1002.0 |
| 20260508130406 | 66 | 3 | 2.0 | 5.0 | 0.00 | 0.00 | 0.00 | 84 | 1001.7 |
| 20260508125206 | 66 | 18 | 3.0 | 6.0 | 0.00 | 0.00 | 0.00 | 83 | 1001.6 |
| 20260508124004 | 67 | 22 | 3.0 | 6.0 | 0.00 | 0.00 | 0.00 | 84 | 1001.8 |
| 20260508122806 | 66 | 73 | 3.0 | 6.0 | 0.00 | 0.00 | 0.00 | 95 | 1001.7 |
| 20260508121606 | 66 | 293 | 2.0 | 3.0 | 0.00 | 0.00 | 0.00 | 94 | 1001.6 |
| 20260508120404 | 67 | 188 | 2.0 | 3.0 | 0.00 | 0.00 | 0.00 | 94 | 1001.7 |
| 20260508115204 | 67 | 325 | 1.0 | 2.0 | 0.00 | 0.00 | 0.00 | 94 | 1001.5 |
| 20260508114006 | 67 | 189 | 1.0 | 1.0 | 0.00 | 0.00 | 0.00 | 93 | 1001.5 |
| 20260508112806 | 67 | 253 | 1.0 | 2.0 | 0.00 | 0.00 | 0.00 | 93 | 1001.3 |
| 20260508111604 | 68 | 286 | 0.0 | 1.0 | 0.00 | 0.00 | 0.00 | 92 | 1001.2 |
| 20260508110406 | 68 | 208 | 1.0 | 2.0 | 0.00 | 0.00 | 0.00 | 91 | 1001.2 |
| 20260508105206 | 68 | 248 | 0.0 | 1.0 | 0.00 | 0.00 | 0.00 | 91 | 1001.2 |
| 20260508104005 | 68 | 296 | 1.0 | 2.0 | 0.00 | 0.00 | 0.00 | 92 | 1001.0 |
| 20260508102805 | 69 | 209 | 2.0 | 2.0 | 0.00 | 0.00 | 0.00 | 91 | 1001.1 |
| 20260508101606 | 69 | 260 | 1.0 | 3.0 | 0.00 | 0.00 | 0.00 | 91 | 1000.9 |
| 20260508100404 | 69 | 215 | 3.0 | 3.0 | 0.00 | 0.00 | 0.00 | 91 | 1000.7 |
| 20260508095205 | 70 | 249 | 0.0 | 0.0 | 0.00 | 0.00 | 0.00 | 89 | 1000.6 |
| 20260508094005 | 70 | 303 | 1.0 | 1.0 | 0.00 | 0.00 | 0.00 | 89 | 1000.7 |
| 20260508092806 | 71 | 227 | 1.0 | 1.0 | 0.00 | 0.00 | 0.00 | 87 | 1000.5 |
| 20260508091608 | 71 | 226 | 0.0 | 0.0 | 0.00 | 0.00 | 0.00 | 86 | 1000.7 |
| 20260508090404 | 72 | 226 | 1.0 | 2.0 | 0.00 | 0.00 | 0.00 | 85 | 1000.8 |
| 20260508085205 | 72 | 251 | 0.0 | 1.0 | 0.00 | 0.00 | 0.00 | 83 | 1000.3 |
| 20260508084007 | 73 | 351 | 0.0 | 1.0 | 0.00 | 0.00 | 0.00 | 82 | 1000.5 |
| 20260508082805 | 73 | 330 | 2.0 | 5.0 | 0.00 | 0.00 | 0.00 | 81 | 1000.8 |
| 20260508081604 | 73 | 336 | 3.0 | 7.0 | 0.00 | 0.00 | 0.00 | 81 | 1000.8 |
| 20260508080405 | 73 | 315 | 1.0 | 1.0 | 0.00 | 0.00 | 0.00 | 79 | 1000.6 |
| 20260508075203 | 74 | 306 | 0.0 | 0.0 | 0.00 | 0.00 | 0.00 | 78 | 1000.6 |
| 20260508074005 | 74 | 328 | 2.0 | 3.0 | 0.00 | 0.00 | 0.00 | 78 | 1000.6 |
| 20260508072807 | 74 | 48 | 0.0 | 2.0 | 0.00 | 0.00 | 0.00 | 77 | 1000.9 |
| 20260508071605 | 75 | 45 | 1.0 | 3.0 | 0.00 | 0.00 | 0.00 | 75 | 1001.1 |
| 20260508070404 | 75 | 356 | 2.0 | 5.0 | 0.00 | 0.00 | 0.00 | 77 | 1001.1 |
| 20260508065205 | 75 | 356 | 1.0 | 2.0 | 0.00 | 0.00 | 0.00 | 77 | 1001.7 |